{"data":{"norad_id":59121,"epoch":"2026-09-22T18:18:54.756864Z","epoch_age_seconds":62375,"freshness":"FRESH","line1":"1 59121U 24043Z   26265.76313376  .00004523  00000+0  15052-3 0  9997","line2":"2 59121  97.5769  45.2557 0009334 261.2332  98.7852 15.31648624141970","mean_motion":15.31648624,"eccentricity":0.0009334,"inclination_deg":97.5769,"raan_deg":45.2557,"arg_perigee_deg":261.2332,"mean_anomaly_deg":98.7852,"bstar":0.00015052,"rev_number":14197,"period_min":94.016341439941,"perigee_km":464.50026394835,"apogee_km":477.28603342992,"semimajor_km":6849.0301486891,"source":"CELESTRAK","updated_at":"2026-09-23T09:00:19.177138Z"}}